SQ7FZR-13 Weather Reports


Display with metric or nautical units.
time (UTC)temp
F
wind
direction
speed
MPH
gust
MPH
rain 1hr
in
rain 24hr
in
rain mn
in
humidity
%
barometer
mb
20260508043641 52 1 0.0 2.0 0.00 0.00 0.00 81 1016.4
20260508042941 52 0 0.0 0.0 0.00 0.00 0.00 81 1016.4
20260508041541 52 0 0.0 0.0 0.00 0.00 0.00 80 1016.2
20260508035943 52 1 2.0 6.0 0.00 0.00 0.00 80 1016.2
20260508034543 52 1 0.0 2.0 0.00 0.00 0.00 80 1016.0
20260508033843 52 1 0.0 2.0 0.00 0.00 0.00 80 1016.0
20260508033143 53 1 1.0 3.0 0.00 0.00 0.00 80 1015.9
20260508031743 53 0 0.0 0.0 0.00 0.00 0.00 80 1015.7
20260508031043 53 0 0.0 0.0 0.00 0.00 0.00 80 1015.7
20260508030343 53 0 0.0 0.0 0.00 0.00 0.00 79 1015.6
20260508025643 53 1 1.0 6.0 0.00 0.00 0.00 79 1015.7
20260508024243 53 1 0.0 2.0 0.00 0.00 0.00 80 1015.7
20260508023543 53 0 0.0 0.0 0.00 0.00 0.00 80 1015.7
20260508022143 53 0 0.0 0.0 0.00 0.00 0.00 79 1015.6
20260508021442 53 0 0.0 0.0 0.00 0.00 0.00 79 1015.5
20260508020743 53 0 0.0 0.0 0.00 0.00 0.00 79 1015.4
20260508020042 53 0 0.0 0.0 0.00 0.00 0.00 79 1015.2
20260508015342 53 0 0.0 0.0 0.00 0.00 0.00 79 1015.2
20260508013943 53 1 1.0 2.0 0.00 0.00 0.00 79 1015.2
20260508013243 53 1 1.0 2.0 0.00 0.00 0.00 79 1015.4
20260508012542 53 0 0.0 0.0 0.00 0.00 0.00 78 1015.6
20260508011842 53 0 0.0 0.0 0.00 0.00 0.00 78 1015.5
20260508010442 53 1 2.0 7.0 0.00 0.00 0.00 78 1015.4
20260508005742 53 1 2.0 7.0 0.00 0.00 0.00 78 1015.4
20260508004343 54 0 0.0 0.0 0.00 0.00 0.00 78 1015.4
20260508003642 54 1 2.0 4.0 0.00 0.00 0.00 78 1015.3
20260508002943 54 1 1.0 4.0 0.00 0.00 0.00 78 1015.3
20260508002242 54 0 0.0 0.0 0.00 0.00 0.00 79 1015.3
20260508000142 54 7 3.0 4.0 0.00 0.00 0.00 78 1015.2
20260507235442 54 8 2.0 4.0 0.00 0.00 0.00 79 1015.2
20260507234042 55 0 0.0 0.0 0.00 0.00 0.00 79 1015.5
20260507233342 55 0 0.0 0.0 0.00 0.00 0.00 78 1015.5
20260507232642 55 0 0.0 0.0 0.00 0.00 0.00 78 1015.6
20260507231942 55 0 0.0 0.0 0.00 0.00 0.00 78 1015.5
20260507230542 55 0 0.0 0.0 0.00 0.00 0.00 79 1015.6
20260507225842 55 0 0.0 0.0 0.00 0.00 0.00 79 1015.4
20260507225142 55 0 0.0 0.0 0.00 0.00 0.00 79 1015.3
20260507223742 55 1 4.0 6.0 0.00 0.00 0.00 79 1015.5
20260507223042 55 1 0.0 6.0 0.00 0.00 0.00 79 1015.4
20260507222342 55 0 0.0 0.0 0.00 0.00 0.00 80 1015.3
20260507221642 56 1 0.0 2.0 0.00 0.00 0.00 80 1015.2
20260507220242 56 1 0.0 2.0 0.00 0.00 0.00 80 1014.9
20260507215542 56 1 0.0 2.0 0.00 0.00 0.00 80 1014.9
20260507214842 56 0 0.0 0.0 0.00 0.00 0.00 80 1014.9
20260507213442 56 0 0.0 0.0 0.00 0.00 0.00 80 1014.8
20260507212742 56 0 0.0 0.0 0.00 0.00 0.00 79 1014.5
20260507212042 56 0 0.0 0.0 0.00 0.00 0.00 79 1014.6
20260507211342 56 0 0.0 0.0 0.00 0.00 0.00 78 1014.6
20260507205943 57 0 0.0 0.0 0.00 0.00 0.00 78 1014.7
20260507205243 57 0 0.0 0.0 0.00 0.00 0.00 78 1014.7
20260507203842 57 0 0.0 0.0 0.00 0.00 0.00 78 1014.5
20260507202442 57 0 0.0 0.0 0.00 0.00 0.00 77 1014.5
20260507201742 57 0 0.0 0.0 0.00 0.00 0.00 77 1014.4
20260507201042 58 0 0.0 0.0 0.00 0.00 0.00 76 1014.5
20260507200342 58 0 0.0 0.0 0.00 0.00 0.00 76 1014.5
20260507194942 58 0 0.0 0.0 0.00 0.00 0.00 76 1014.4
20260507194242 58 0 0.0 0.0 0.00 0.00 0.00 76 1014.4
20260507193542 58 0 0.0 0.0 0.00 0.00 0.00 75 1014.6
20260507192842 59 0 0.0 0.0 0.00 0.00 0.00 75 1014.4
20260507192142 59 0 0.0 0.0 0.00 0.00 0.00 75 1014.3
20260507190742 59 1 0.0 1.0 0.00 0.00 0.00 72 1014.3
20260507190042 60 349 3.0 6.0 0.00 0.00 0.00 71 1014.3
20260507185341 60 359 3.0 6.0 0.00 0.00 0.00 70 1014.4
20260507184642 61 23 1.0 2.0 0.00 0.00 0.00 70 1014.2
20260507183941 61 1 0.0 2.0 0.00 0.00 0.00 69 1014.2
20260507183242 61 1 0.0 2.0 0.00 0.00 0.00 68 1013.9
20260507182542 62 22 2.0 4.0 0.00 0.00 0.00 67 1013.8
20260507181842 62 356 2.0 6.0 0.00 0.00 0.00 67 1013.7
20260507181142 62 1 2.0 7.0 0.00 0.00 0.00 67 1013.7
20260507175042 62 23 0.0 2.0 0.00 0.00 0.00 66 1013.6
20260507174341 63 22 0.0 2.0 0.00 0.00 0.00 66 1013.4
20260507173641 63 0 0.0 0.0 0.00 0.00 0.00 65 1013.4
20260507172941 63 0 0.0 0.0 0.00 0.00 0.00 65 1013.2
20260507172241 63 1 0.0 2.0 0.00 0.00 0.00 64 1012.8
20260507171541 63 1 0.0 2.0 0.00 0.00 0.00 64 1013.0
20260507170141 64 1 1.0 2.0 0.00 0.00 0.00 64 1012.9
20260507165441 64 3 2.0 7.0 0.00 0.00 0.00 63 1012.9
20260507164742 64 1 3.0 7.0 0.00 0.00 0.00 63 1012.8
20260507164042 65 7 3.0 6.0 0.00 0.00 0.00 62 1012.8
20260507161241 66 1 1.0 7.0 0.00 0.00 0.00 61 1012.4
20260507160541 66 1 3.0 7.0 0.00 0.00 0.00 61 1012.5
20260507155842 66 4 4.0 5.0 0.00 0.00 0.00 61 1012.6
20260507155142 66 5 5.0 6.0 0.00 0.00 0.00 60 1012.7
20260507154441 67 1 3.0 4.0 0.00 0.00 0.00 60 1012.6
20260507153741 67 1 3.0 5.0 0.00 0.00 0.00 59 1012.5
20260507153041 67 1 3.0 7.0 0.00 0.00 0.00 59 1012.6
20260507152341 68 8 3.0 7.0 0.00 0.00 0.00 59 1012.6
20260507151641 68 22 1.0 4.0 0.00 0.00 0.00 59 1012.5
20260507150941 68 3 3.0 4.0 0.00 0.00 0.00 58 1012.5
20260507150241 69 1 3.0 4.0 0.00 0.00 0.00 58 1012.5
20260507145541 69 4 3.0 5.0 0.00 0.00 0.00 57 1012.5
20260507144841 69 8 3.0 6.0 0.00 0.00 0.00 57 1012.4
20260507143441 70 9 2.0 6.0 0.00 0.00 0.00 57 1012.5
20260507142041 70 10 3.0 7.0 0.00 0.00 0.00 58 1012.1
20260507140641 69 7 4.0 8.0 0.00 0.00 0.00 60 1012.4
20260507135941 69 4 3.0 5.0 0.00 0.00 0.00 61 1012.2
20260507135241 68 356 2.0 4.0 0.00 0.00 0.00 62 1012.5
20260507132441 68 30 4.0 7.0 0.00 0.00 0.00 61 1012.5
20260507131741 68 358 4.0 7.0 0.00 0.00 0.00 60 1012.5
20260507131041 68 13 5.0 7.0 0.00 0.00 0.00 61 1012.6
20260507130341 68 5 6.0 8.0 0.00 0.00 0.00 61 1012.5
20260507125641 67 1 4.0 8.0 0.00 0.00 0.00 63 1012.3
20260507124941 67 181 2.0 7.0 0.00 0.00 0.00 62 1012.3
20260507122141 68 1 5.0 9.0 0.00 0.00 0.00 61 1012.2
20260507121441 68 14 6.0 9.0 0.00 0.00 0.00 61 1012.3
20260507120741 68 5 5.0 9.0 0.00 0.00 0.00 61 1012.1
20260507120041 68 18 5.0 7.0 0.00 0.00 0.00 61 1011.8
20260507115341 68 8 6.0 7.0 0.00 0.00 0.00 60 1011.6
20260507114641 68 1 5.0 6.0 0.00 0.00 0.00 60 1011.7
20260507113941 69 1 5.0 6.0 0.00 0.00 0.00 59 1011.8
20260507112541 70 18 4.0 7.0 0.00 0.00 0.00 58 1011.3
20260507111841 71 5 6.0 7.0 0.00 0.00 0.00 56 1011.3
20260507111141 71 8 2.0 7.0 0.00 0.00 0.00 56 1011.2
20260507110441 71 22 1.0 2.0 0.00 0.00 0.00 56 1011.0
20260507105741 71 22 0.0 2.0 0.00 0.00 0.00 56 1010.9
20260507105041 71 191 3.0 6.0 0.00 0.00 0.00 56 1010.8
20260507104341 71 224 2.0 6.0 0.00 0.00 0.00 56 1010.9
20260507103641 71 13 3.0 6.0 0.00 0.00 0.00 56 1010.6
20260507102941 71 22 3.0 6.0 0.00 0.00 0.00 56 1010.6
20260507102241 71 7 1.0 3.0 0.00 0.00 0.00 57 1010.6
20260507100841 71 7 2.0 8.0 0.00 0.00 0.00 56 1010.5
20260507100141 71 161 2.0 7.0 0.00 0.00 0.00 55 1010.4
20260507095440 71 181 4.0 7.0 0.00 0.00 0.00 55 1010.2
20260507094741 71 181 1.0 3.0 0.00 0.00 0.00 57 1010.2
20260507094041 71 165 3.0 8.0 0.00 0.00 0.00 56 1010.2
20260507093341 71 109 6.0 8.0 0.00 0.00 0.00 56 1010.2
20260507091940 70 1 4.0 7.0 0.00 0.00 0.00 57 1010.0
20260507091241 70 165 3.0 6.0 0.00 0.00 0.00 57 1009.9
20260507090540 70 300 5.0 8.0 0.00 0.00 0.00 56 1009.9
20260507085840 70 183 6.0 8.0 0.00 0.00 0.00 56 1009.9
20260507085141 70 167 2.0 6.0 0.00 0.00 0.00 57 1009.9
20260507083740 70 356 4.0 7.0 0.00 0.00 0.00 57 1009.6
20260507083040 70 352 3.0 8.0 0.00 0.00 0.00 57 1009.6
20260507082340 69 359 4.0 8.0 0.00 0.00 0.00 56 1009.3
20260507081641 69 146 4.0 8.0 0.00 0.00 0.00 57 1009.4
20260507080941 69 45 5.0 8.0 0.00 0.00 0.00 57 1009.4
20260507075540 69 178 2.0 8.0 0.00 0.00 0.00 58 1009.4
20260507074840 69 172 1.0 5.0 0.00 0.00 0.00 58 1009.2
20260507074141 69 162 3.0 6.0 0.00 0.00 0.00 59 1009.1
20260507073440 69 181 4.0 6.0 0.00 0.00 0.00 60 1009.1
20260507072740 67 181 1.0 3.0 0.00 0.00 0.00 62 1009.0
20260507071340 67 188 2.0 4.0 0.00 0.00 0.00 63 1008.8
20260507070640 66 128 2.0 6.0 0.00 0.00 0.00 65 1008.7
20260507065940 66 85 5.0 6.0 0.00 0.00 0.00 67 1008.7
20260507065240 65 178 3.0 5.0 0.00 0.00 0.00 68 1008.7
20260507064540 65 181 1.0 2.0 0.00 0.00 0.00 69 1008.7
20260507063840 64 1 1.0 2.0 0.00 0.00 0.00 69 1008.7
20260507063140 63 1 1.0 2.0 0.00 0.00 0.00 72 1008.7
20260507062440 62 181 0.0 2.0 0.00 0.00 0.00 73 1008.8
20260507061740 62 181 0.0 1.0 0.00 0.00 0.00 74 1008.7
20260507061040 62 0 0.0 0.0 0.00 0.00 0.00 75 1008.7
20260507060340 61 0 0.0 0.0 0.00 0.00 0.00 76 1008.7
20260507055640 61 181 2.0 5.0 0.00 0.00 0.00 76 1008.7
20260507054940 60 181 1.0 3.0 0.00 0.00 0.00 77 1008.7
20260507054240 60 181 1.0 2.0 0.00 0.00 0.00 78 1008.6
20260507053540 59 181 0.0 2.0 0.00 0.00 0.00 78 1008.6
20260507052840 59 181 0.0 1.0 0.00 0.00 0.00 79 1008.6
20260507052140 59 0 0.0 0.0 0.00 0.00 0.00 79 1008.6
20260507051440 58 0 0.0 0.0 0.00 0.00 0.00 79 1008.7
20260507050040 58 0 0.0 0.0 0.00 0.00 0.00 79 1008.5
20260507045340 58 0 0.0 0.0 0.00 0.00 0.00 80 1008.5
20260507043940 57 0 0.0 0.0 0.00 0.00 0.00 80 1008.6